contact:dominique.lefevre@mio.osupytheas.fr, maurice.libes@osupytheas.fr, didier.mallarino@osupytheas.fr
Project:EMSO http://www.emso-fr.org/EMSO-France
Depth: 2436.0 m
Title:EMSO Ligure Ouest : Data MII capteur AQUADOPP
Date,Latitude,Longitude,X_East,Y_North,Z_Up,Amplitude_X,Amplitude_Y,Amplitude_Z,Batterie,SoundSpeed,Heading,Pitch,Roll,Pressure,TIS,Speed,Direction
, degrees North, degrees East, m.s-1, m.s-1,m.s-1, 1, 1, 1, Volt, m.s-1, degree, degree, degree, dbar, degree_C, m.s-1, degree
2021-09-08T00:04:03,42.805,6.029,0.009,-0.004,0.017,102.0,101.0,100.0,13.4,1505.2,331.5,-0.7,1.9,2470.647,13.28,0.009,114.0
2021-09-08T00:07:03,42.805,6.029,-0.004,-0.024,-0.015,101.0,102.0,101.0,13.3,1505.2,328.2,-0.7,1.8,2470.629,13.28,0.024,189.5
2021-09-08T00:10:03,42.805,6.029,0.015,-0.003,-0.008,101.0,102.0,100.0,13.4,1505.2,327.4,-0.7,1.8,2470.636,13.28,0.015,101.3
2021-09-08T00:13:03,42.805,6.029,-0.005,-0.023,0.008,101.0,102.0,100.0,13.4,1505.2,326.6,-0.7,1.9,2470.614,13.28,0.023,192.3
2021-09-08T00:16:03,42.805,6.029,0.015,-0.016,-0.019,102.0,102.0,99.0,13.3,1505.2,326.8,-0.8,1.8,2470.627,13.28,0.021,136.9
2021-09-08T00:19:03,42.805,6.029,-0.006,-0.019,-0.007,102.0,100.0,100.0,13.3,1505.2,329.2,-0.7,1.9,2470.564,13.28,0.019,197.5
2021-09-08T00:22:03,42.805,6.029,0.004,-0.004,-0.005,100.0,101.0,100.0,13.4,1505.2,328.9,-0.8,1.8,2470.624,13.28,0.005,135.0
2021-09-08T00:25:03,42.805,6.029,-0.003,0.003,0.006,102.0,104.0,100.0,13.3,1505.2,327.5,-0.7,1.8,2470.605,13.28,0.004,315.0
2021-09-08T00:28:03,42.805,6.029,0.008,-0.018,-0.003,99.0,101.0,101.0,13.3,1505.2,328.4,-0.8,1.8,2470.592,13.28,0.019,156.0
2021-09-08T00:31:03,42.805,6.029,0.015,-0.032,-0.034,100.0,101.0,100.0,13.3,1505.2,328.2,-0.7,1.8,2470.627,13.28,0.035,154.9
2021-09-08T00:34:03,42.805,6.029,0.003,-0.021,-0.003,102.0,101.0,100.0,13.4,1505.2,325.5,-0.7,1.8,2470.611,13.28,0.021,171.9
2021-09-08T00:37:03,42.805,6.029,0.008,-0.025,-0.001,103.0,101.0,99.0,13.4,1505.2,328.3,-0.7,1.8,2470.576,13.28,0.026,162.3
2021-09-08T00:40:03,42.805,6.029,0.007,-0.027,-0.009,100.0,101.0,100.0,13.4,1505.2,329.5,-0.7,1.8,2470.562,13.28,0.027,165.5
2021-09-08T00:43:03,42.805,6.029,0.025,-0.019,-0.004,100.0,102.0,99.0,13.3,1505.2,325.8,-0.7,1.8,2470.591,13.28,0.031,127.2
2021-09-08T00:46:03,42.805,6.029,0.0,-0.01,-0.02,101.0,102.0,100.0,13.3,1505.2,328.2,-0.8,1.8,2470.568,13.28,0.01,180.0
2021-09-08T00:49:03,42.805,6.029,0.023,-0.001,-0.012,100.0,101.0,101.0,13.4,1505.2,326.1,-0.8,1.8,2470.548,13.28,0.023,92.5
2021-09-08T00:52:03,42.805,6.029,0.012,-0.017,-0.031,102.0,100.0,100.0,13.4,1505.2,327.0,-0.8,1.8,2470.532,13.28,0.02,144.8
2021-09-08T00:55:03,42.805,6.029,0.005,-0.014,0.003,101.0,101.0,100.0,13.4,1505.2,327.1,-0.7,1.8,2470.558,13.28,0.014,160.4
2021-09-08T00:58:03,42.805,6.029,0.018,-0.007,0.0,101.0,101.0,100.0,13.3,1505.2,329.3,-0.8,1.8,2470.557,13.28,0.019,111.2
2021-09-08T01:04:03,42.805,6.029,0.0,-0.021,-0.013,102.0,102.0,102.0,13.4,1505.2,330.6,-0.8,1.8,2470.584,13.28,0.021,180.0
2021-09-08T01:07:03,42.805,6.029,0.001,-0.026,-0.024,102.0,100.0,100.0,13.4,1505.2,327.8,-0.8,1.8,2470.594,13.28,0.026,177.8
2021-09-08T01:10:03,42.805,6.029,0.005,-0.018,-0.021,101.0,100.0,101.0,13.4,1505.2,325.8,-0.8,1.8,2470.596,13.28,0.018,164.5
2021-09-08T01:13:03,42.805,6.029,0.031,-0.04,-0.028,99.0,102.0,101.0,13.4,1505.2,331.4,-0.7,1.8,2470.586,13.28,0.05,142.2
2021-09-08T01:16:03,42.805,6.029,0.018,-0.016,0.011,101.0,101.0,100.0,13.4,1505.2,327.0,-0.7,1.8,2470.524,13.28,0.024,131.6
2021-09-08T01:19:03,42.805,6.029,0.006,-0.013,0.009,103.0,101.0,100.0,13.3,1505.2,326.8,-0.7,1.8,2470.551,13.28,0.014,155.2
2021-09-08T01:22:03,42.805,6.029,0.025,-0.02,0.019,100.0,101.0,101.0,13.4,1505.2,326.4,-0.8,1.8,2470.528,13.28,0.032,128.7
2021-09-08T01:25:03,42.805,6.029,0.012,-0.025,-0.005,101.0,100.0,100.0,13.4,1505.2,330.6,-0.8,1.8,2470.548,13.28,0.027,154.4
2021-09-08T01:28:03,42.805,6.029,0.019,-0.014,-0.022,99.0,102.0,100.0,13.4,1505.2,329.6,-0.8,1.8,2470.542,13.28,0.023,126.4
2021-09-08T01:31:03,42.805,6.029,0.005,-0.004,0.001,100.0,102.0,100.0,13.4,1505.2,328.8,-0.8,1.8,2470.533,13.28,0.006,128.7
2021-09-08T01:34:03,42.805,6.029,0.026,-0.025,-0.003,99.0,103.0,100.0,13.4,1505.2,327.5,-0.8,1.8,2470.553,13.28,0.036,133.9
2021-09-08T01:37:03,42.805,6.029,0.025,-0.019,0.004,100.0,101.0,101.0,13.3,1505.2,325.6,-0.8,1.8,2470.503,13.28,0.031,127.2
2021-09-08T01:40:03,42.805,6.029,0.0,-0.025,-0.016,102.0,101.0,100.0,13.3,1505.2,330.9,-0.8,1.8,2470.521,13.28,0.025,180.0
2021-09-08T01:43:03,42.805,6.029,0.005,-0.016,-0.01,102.0,100.0,99.0,13.4,1505.2,328.5,-0.7,1.8,2470.509,13.28,0.016,162.6
2021-09-08T01:46:03,42.805,6.029,0.005,-0.009,-0.011,101.0,100.0,101.0,13.4,1505.2,328.9,-0.8,1.8,2470.514,13.28,0.01,150.9
2021-09-08T01:49:03,42.805,6.029,0.007,-0.028,-0.004,100.0,103.0,100.0,13.4,1505.2,327.7,-0.8,1.9,2470.555,13.28,0.028,166.0
2021-09-08T01:52:03,42.805,6.029,0.004,-0.005,-0.023,102.0,102.0,99.0,13.4,1505.2,328.9,-0.7,1.8,2470.544,13.28,0.006,141.3
2021-09-08T01:55:03,42.805,6.029,0.021,-0.014,-0.003,101.0,102.0,100.0,13.4,1505.2,329.3,-0.8,1.9,2470.532,13.28,0.025,123.7
2021-09-08T01:58:03,42.805,6.029,0.043,0.0,0.011,100.0,100.0,102.0,13.3,1505.2,325.2,-0.7,1.8,2470.486,13.28,0.043,90.0
2021-09-08T02:04:03,42.805,6.029,0.023,-0.026,-0.016,101.0,102.0,99.0,13.3,1505.2,328.6,-0.8,1.8,2470.568,13.28,0.034,138.5
2021-09-08T02:07:03,42.805,6.029,0.019,-0.021,-0.019,101.0,101.0,101.0,13.4,1505.2,329.3,-0.8,1.8,2470.508,13.28,0.028,137.9
2021-09-08T02:10:03,42.805,6.029,0.0,-0.023,-0.011,100.0,100.0,101.0,13.3,1505.2,329.6,-0.8,1.8,2470.535,13.28,0.023,180.0
2021-09-08T02:13:03,42.805,6.029,-0.006,-0.021,-0.027,101.0,101.0,100.0,13.4,1505.2,326.3,-0.8,1.8,2470.549,13.28,0.021,195.9
2021-09-08T02:16:03,42.805,6.029,0.019,-0.027,-0.015,102.0,100.0,101.0,13.4,1505.2,327.6,-0.8,1.8,2470.522,13.28,0.033,144.9
2021-09-08T02:19:03,42.805,6.029,0.022,-0.019,-0.008,100.0,102.0,101.0,13.4,1505.2,329.5,-0.7,1.8,2470.545,13.28,0.029,130.8
2021-09-08T02:22:03,42.805,6.029,0.001,-0.029,-0.025,101.0,100.0,100.0,13.4,1505.2,326.8,-0.7,1.8,2470.517,13.28,0.029,178.0
2021-09-08T02:25:03,42.805,6.029,0.012,-0.012,0.005,101.0,102.0,101.0,13.3,1505.2,329.4,-0.7,1.8,2470.521,13.28,0.016,135.0
2021-09-08T02:28:03,42.805,6.029,0.0,0.011,0.017,100.0,102.0,100.0,13.4,1505.2,329.1,-0.7,1.8,2470.494,13.28,0.011,0.0
2021-09-08T02:31:03,42.805,6.029,0.002,-0.026,-0.014,102.0,101.0,100.0,13.4,1505.2,329.8,-0.7,1.8,2470.526,13.28,0.026,175.6
2021-09-08T02:34:03,42.805,6.029,0.0,-0.014,0.011,101.0,101.0,100.0,13.4,1505.2,331.4,-0.8,1.8,2470.511,13.28,0.014,180.0
2021-09-08T02:37:03,42.805,6.029,0.01,-0.022,-0.01,101.0,101.0,99.0,13.4,1505.2,331.2,-0.8,1.8,2470.511,13.28,0.024,155.6
2021-09-08T02:40:03,42.805,6.029,0.004,-0.018,0.021,101.0,102.0,101.0,13.4,1505.2,327.1,-0.7,1.8,2470.525,13.28,0.018,167.5
2021-09-08T02:43:03,42.805,6.029,0.025,-0.018,-0.024,100.0,101.0,100.0,13.4,1505.2,327.9,-0.7,1.8,2470.513,13.28,0.03,125.8
2021-09-08T02:46:03,42.805,6.029,0.008,-0.02,0.008,103.0,99.0,100.0,13.4,1505.2,328.5,-0.8,1.8,2470.518,13.28,0.021,158.2
2021-09-08T02:49:03,42.805,6.029,0.03,-0.015,0.021,99.0,100.0,101.0,13.4,1505.2,326.6,-0.7,1.8,2470.474,13.28,0.033,116.6
2021-09-08T02:52:03,42.805,6.029,0.039,-0.019,0.022,99.0,101.0,101.0,13.3,1505.2,327.3,-0.7,1.8,2470.511,13.28,0.043,116.0
2021-09-08T02:55:03,42.805,6.029,-0.004,-0.028,-0.021,100.0,101.0,102.0,13.3,1505.2,328.2,-0.7,1.8,2470.534,13.28,0.028,188.1
2021-09-08T02:58:03,42.805,6.029,0.028,-0.029,0.021,101.0,102.0,101.0,13.4,1505.2,330.1,-0.7,1.8,2470.522,13.28,0.04,136.0
2021-09-08T03:04:03,42.805,6.029,0.013,-0.017,0.023,102.0,101.0,100.0,13.4,1505.2,331.1,-0.8,1.8,2470.526,13.28,0.021,142.6
2021-09-08T03:07:03,42.805,6.029,0.025,-0.02,0.017,101.0,101.0,100.0,13.4,1505.2,329.6,-0.8,1.8,2470.523,13.28,0.032,128.7
2021-09-08T03:10:03,42.805,6.029,0.027,-0.025,-0.001,102.0,102.0,101.0,13.4,1505.2,328.7,-0.8,1.8,2470.526,13.28,0.036,132.8
2021-09-08T03:13:03,42.805,6.029,0.03,-0.044,-0.003,101.0,101.0,101.0,13.3,1505.2,327.3,-0.7,1.8,2470.547,13.28,0.053,145.7
2021-09-08T03:16:03,42.805,6.029,0.004,-0.03,-0.003,101.0,101.0,101.0,13.3,1505.2,326.4,-0.7,1.8,2470.534,13.28,0.03,172.4
2021-09-08T03:19:03,42.805,6.029,0.026,-0.028,0.002,102.0,102.0,101.0,13.4,1505.2,329.7,-0.8,1.8,2470.521,13.28,0.038,137.1
2021-09-08T03:22:03,42.805,6.029,0.012,-0.029,0.026,102.0,102.0,100.0,13.4,1505.2,328.6,-0.8,1.8,2470.524,13.28,0.031,157.5
2021-09-08T03:25:03,42.805,6.029,0.016,-0.022,-0.024,100.0,103.0,101.0,13.4,1505.2,329.8,-0.8,1.8,2470.518,13.28,0.027,144.0
2021-09-08T03:28:03,42.805,6.029,0.035,-0.037,-0.018,102.0,102.0,101.0,13.4,1505.2,329.8,-0.7,1.8,2470.522,13.28,0.05,136.6
2021-09-08T03:31:03,42.805,6.029,0.023,-0.032,-0.003,102.0,101.0,101.0,13.4,1505.2,328.4,-0.7,1.8,2470.515,13.28,0.039,144.3
2021-09-08T03:34:03,42.805,6.029,0.017,-0.035,0.001,100.0,101.0,102.0,13.4,1505.2,329.7,-0.7,1.8,2470.49,13.28,0.038,154.1
2021-09-08T03:37:03,42.805,6.029,0.004,-0.022,0.008,102.0,100.0,102.0,13.4,1505.2,329.8,-0.8,1.8,2470.454,13.28,0.022,169.7
2021-09-08T03:40:03,42.805,6.029,0.015,-0.033,-0.025,102.0,102.0,101.0,13.4,1505.2,330.3,-0.7,1.8,2470.548,13.28,0.036,155.6
2021-09-08T03:43:03,42.805,6.029,0.005,-0.016,-0.004,101.0,102.0,101.0,13.4,1505.2,327.5,-0.7,1.8,2470.515,13.28,0.016,162.6
2021-09-08T03:46:03,42.805,6.029,-0.017,-0.038,-0.031,103.0,101.0,101.0,13.3,1505.2,328.5,-0.7,1.8,2470.488,13.28,0.041,204.1
2021-09-08T03:49:03,42.805,6.029,0.025,-0.025,-0.023,101.0,101.0,101.0,13.4,1505.2,329.1,-0.8,1.8,2470.531,13.28,0.035,135.0
2021-09-08T03:52:03,42.805,6.029,0.026,-0.023,-0.018,101.0,103.0,99.0,13.3,1505.2,324.8,-0.8,1.8,2470.547,13.28,0.034,131.5
2021-09-08T03:55:03,42.805,6.029,-0.004,-0.042,-0.063,101.0,101.0,100.0,13.4,1505.2,327.1,-0.7,1.8,2470.516,13.28,0.042,185.4
2021-09-08T03:58:03,42.805,6.029,0.008,-0.042,-0.017,101.0,101.0,101.0,13.4,1505.2,328.3,-0.8,1.8,2470.551,13.28,0.042,169.2
2021-09-08T04:04:03,42.805,6.029,0.026,-0.029,-0.035,102.0,101.0,100.0,13.4,1505.2,329.7,-0.8,1.8,2470.549,13.28,0.038,138.1
2021-09-08T04:07:03,42.805,6.029,0.017,-0.03,0.006,102.0,101.0,100.0,13.4,1505.2,328.7,-0.7,1.8,2470.582,13.28,0.034,150.5
2021-09-08T04:10:03,42.805,6.029,0.008,-0.031,-0.003,101.0,102.0,101.0,13.4,1505.2,325.9,-0.8,1.8,2470.549,13.28,0.032,165.5
2021-09-08T04:13:03,42.805,6.029,0.014,-0.025,0.022,102.0,102.0,101.0,13.3,1505.2,327.1,-0.7,1.8,2470.574,13.28,0.028,150.7
2021-09-08T04:16:03,42.805,6.029,0.016,-0.009,0.004,103.0,102.0,100.0,13.4,1505.2,330.7,-0.8,1.8,2470.562,13.28,0.018,119.4
2021-09-08T04:19:03,42.805,6.029,-0.004,-0.012,-0.034,101.0,101.0,101.0,13.4,1505.2,326.9,-0.8,1.8,2470.543,13.28,0.012,198.4
2021-09-08T04:22:03,42.805,6.029,0.008,-0.034,0.009,102.0,100.0,100.0,13.4,1505.2,330.9,-0.7,1.8,2470.568,13.28,0.034,166.8
2021-09-08T04:25:03,42.805,6.029,-0.001,-0.011,-0.026,101.0,101.0,101.0,13.4,1505.2,327.6,-0.8,1.8,2470.587,13.28,0.011,185.2
2021-09-08T04:28:03,42.805,6.029,0.026,-0.034,-0.01,101.0,101.0,101.0,13.4,1505.2,325.6,-0.7,1.8,2470.577,13.28,0.042,142.6
2021-09-08T04:31:03,42.805,6.029,-0.003,-0.028,-0.031,101.0,101.0,101.0,13.4,1505.2,326.7,-0.7,1.8,2470.583,13.28,0.028,186.1
2021-09-08T04:34:03,42.805,6.029,0.052,-0.019,0.019,101.0,102.0,101.0,13.4,1505.2,326.9,-0.7,1.8,2470.565,13.28,0.055,110.1
2021-09-08T04:37:03,42.805,6.029,0.028,-0.042,-0.031,100.0,102.0,101.0,13.4,1505.2,327.0,-0.8,1.8,2470.537,13.28,0.05,146.3
2021-09-08T04:40:03,42.805,6.029,0.003,-0.014,-0.02,102.0,101.0,101.0,13.3,1505.2,327.1,-0.8,1.8,2470.606,13.28,0.014,167.9
2021-09-08T04:43:03,42.805,6.029,0.035,-0.033,-0.001,101.0,101.0,100.0,13.4,1505.2,329.6,-0.7,1.8,2470.592,13.28,0.048,133.3
2021-09-08T04:46:03,42.805,6.029,0.039,-0.028,-0.008,101.0,100.0,101.0,13.4,1505.2,326.4,-0.8,1.8,2470.573,13.28,0.048,125.7
2021-09-08T04:49:03,42.805,6.029,0.011,-0.018,-0.024,102.0,101.0,101.0,13.4,1505.2,325.6,-0.8,1.8,2470.596,13.28,0.021,148.6
2021-09-08T04:52:03,42.805,6.029,0.005,-0.006,0.011,103.0,101.0,100.0,13.4,1505.2,330.6,-0.7,1.8,2470.606,13.28,0.007,140.2
2021-09-08T04:55:03,42.805,6.029,0.037,-0.045,-0.028,101.0,101.0,100.0,13.4,1505.2,329.8,-0.8,1.8,2470.557,13.28,0.058,140.6
2021-09-08T04:58:03,42.805,6.029,0.004,-0.032,-0.014,102.0,102.0,102.0,13.4,1505.2,329.5,-0.8,1.8,2470.606,13.28,0.032,172.9
2021-09-08T05:04:03,42.805,6.029,-0.009,-0.035,-0.031,102.0,102.0,101.0,13.3,1505.2,330.4,-0.7,1.8,2470.657,13.28,0.036,194.4
2021-09-08T05:07:03,42.805,6.029,0.011,-0.037,-0.012,102.0,101.0,100.0,13.4,1505.2,328.9,-0.8,1.8,2470.612,13.28,0.038,163.4
2021-09-08T05:10:03,42.805,6.029,0.022,-0.018,-0.005,101.0,102.0,101.0,13.3,1505.2,324.8,-0.8,1.8,2470.633,13.28,0.028,129.3
2021-09-08T05:13:03,42.805,6.029,0.02,-0.025,-0.019,100.0,102.0,100.0,13.4,1505.2,326.6,-0.8,1.9,2470.646,13.28,0.032,141.3
2021-09-08T05:16:03,42.805,6.029,0.001,-0.019,-0.028,102.0,101.0,101.0,13.4,1505.2,328.3,-0.8,1.8,2470.614,13.28,0.019,177.0
2021-09-08T05:19:03,42.805,6.029,0.024,-0.019,0.036,102.0,101.0,101.0,13.4,1505.2,325.6,-0.7,1.8,2470.665,13.28,0.03,128.4
2021-09-08T05:22:03,42.805,6.029,0.027,-0.029,0.0,102.0,101.0,101.0,13.4,1505.2,331.1,-0.7,1.8,2470.62,13.28,0.039,137.0
2021-09-08T05:25:03,42.805,6.029,0.008,-0.022,-0.009,102.0,100.0,102.0,13.3,1505.2,327.9,-0.7,1.8,2470.633,13.28,0.023,160.0
2021-09-08T05:28:03,42.805,6.029,0.022,-0.013,-0.007,102.0,102.0,100.0,13.3,1505.2,326.7,-0.8,1.8,2470.636,13.28,0.025,120.6
2021-09-08T05:31:03,42.805,6.029,0.006,-0.033,0.001,101.0,103.0,100.0,13.4,1505.2,329.6,-0.7,1.8,2470.647,13.28,0.033,169.7
2021-09-08T05:34:03,42.805,6.029,0.019,-0.042,0.013,101.0,101.0,101.0,13.4,1505.2,326.7,-0.7,1.9,2470.601,13.28,0.046,155.7
2021-09-08T05:37:03,42.805,6.029,0.014,-0.03,-0.021,100.0,101.0,100.0,13.4,1505.2,331.4,-0.7,1.8,2470.611,13.28,0.033,155.0
2021-09-08T05:40:03,42.805,6.029,-0.003,-0.009,-0.02,102.0,100.0,100.0,13.4,1505.2,329.4,-0.8,1.8,2470.601,13.28,0.009,198.4
2021-09-08T05:43:03,42.805,6.029,0.013,-0.021,-0.018,101.0,100.0,101.0,13.3,1505.2,328.9,-0.7,1.8,2470.639,13.28,0.024,148.2
2021-09-08T05:46:03,42.805,6.029,0.013,-0.04,0.021,102.0,102.0,100.0,13.3,1505.2,328.6,-0.7,1.8,2470.629,13.28,0.042,162.0
2021-09-08T05:49:03,42.805,6.029,-0.011,-0.024,-0.013,101.0,101.0,101.0,13.3,1505.2,329.7,-0.8,1.8,2470.613,13.28,0.026,204.6
2021-09-08T05:52:03,42.805,6.029,0.019,-0.033,-0.009,101.0,102.0,101.0,13.3,1505.2,326.3,-0.7,1.9,2470.654,13.28,0.038,150.1
2021-09-08T05:55:03,42.805,6.029,0.013,-0.015,0.009,102.0,101.0,100.0,13.3,1505.2,330.5,-0.7,1.8,2470.64,13.28,0.019,139.1
2021-09-08T05:58:03,42.805,6.029,0.019,-0.022,-0.015,104.0,101.0,100.0,13.4,1505.2,328.3,-0.8,1.8,2470.652,13.28,0.029,139.2
2021-09-08T06:04:03,42.805,6.029,0.037,-0.038,-0.022,100.0,102.0,100.0,13.4,1505.2,325.8,-0.8,1.8,2470.729,13.28,0.053,135.8
2021-09-08T06:07:03,42.805,6.029,0.041,-0.031,-0.008,102.0,101.0,100.0,13.4,1505.2,329.1,-0.8,1.8,2470.713,13.28,0.051,127.1
2021-09-08T06:10:03,42.805,6.029,0.028,-0.031,0.014,101.0,101.0,101.0,13.4,1505.2,328.2,-0.8,1.8,2470.673,13.28,0.041,137.9
2021-09-08T06:13:03,42.805,6.029,0.046,-0.048,-0.033,101.0,101.0,102.0,13.4,1505.2,327.6,-0.8,1.8,2470.668,13.28,0.066,136.2
2021-09-08T06:16:03,42.805,6.029,0.034,-0.038,-0.023,100.0,102.0,101.0,13.4,1505.2,328.5,-0.7,1.8,2470.705,13.28,0.05,138.2
2021-09-08T06:19:03,42.805,6.029,0.001,-0.014,-0.047,102.0,101.0,101.0,13.3,1505.2,327.8,-0.8,1.8,2470.687,13.28,0.014,175.9
2021-09-08T06:22:03,42.805,6.029,0.003,-0.016,0.004,102.0,100.0,101.0,13.4,1505.2,326.3,-0.8,1.8,2470.664,13.28,0.016,169.4
2021-09-08T06:25:03,42.805,6.029,0.018,-0.04,-0.037,101.0,102.0,99.0,13.4,1505.2,329.6,-0.8,1.8,2470.727,13.28,0.043,155.8
2021-09-08T06:28:03,42.805,6.029,0.013,-0.023,0.004,102.0,101.0,100.0,13.4,1505.2,328.6,-0.8,1.9,2470.695,13.28,0.026,150.5
2021-09-08T06:31:03,42.805,6.029,0.007,-0.028,-0.012,100.0,103.0,101.0,13.4,1505.2,328.6,-0.7,1.8,2470.665,13.28,0.028,166.0
2021-09-08T06:34:03,42.805,6.029,0.015,-0.051,-0.083,102.0,100.0,100.0,13.4,1505.2,328.6,-0.7,1.8,2470.66,13.28,0.053,163.6
2021-09-08T06:37:03,42.805,6.029,0.017,-0.017,-0.011,102.0,101.0,100.0,13.4,1505.2,325.1,-0.7,1.8,2470.691,13.28,0.024,135.0
2021-09-08T06:40:03,42.805,6.029,0.024,-0.022,0.01,102.0,101.0,100.0,13.3,1505.2,326.6,-0.8,1.8,2470.702,13.28,0.032,132.5
2021-09-08T06:43:03,42.805,6.029,0.015,-0.042,-0.019,101.0,101.0,100.0,13.4,1505.2,326.6,-0.8,1.8,2470.672,13.28,0.044,160.4
2021-09-08T06:46:03,42.805,6.029,0.02,-0.035,-0.018,101.0,102.0,101.0,13.4,1505.2,327.7,-0.7,1.8,2470.689,13.28,0.04,150.3
2021-09-08T06:49:03,42.805,6.029,0.011,-0.018,0.006,102.0,101.0,100.0,13.3,1505.2,327.1,-0.7,1.8,2470.644,13.28,0.021,148.6
2021-09-08T06:52:03,42.805,6.029,0.012,-0.034,0.004,101.0,100.0,101.0,13.4,1505.2,327.9,-0.8,1.8,2470.677,13.28,0.036,160.6
2021-09-08T06:55:03,42.805,6.029,0.03,-0.035,-0.016,101.0,101.0,101.0,13.4,1505.2,329.5,-0.8,1.8,2470.673,13.28,0.046,139.4
2021-09-08T06:58:03,42.805,6.029,0.014,-0.041,-0.001,101.0,100.0,101.0,13.4,1505.2,328.0,-0.7,1.8,2470.69,13.28,0.043,161.1
2021-09-08T07:04:03,42.805,6.029,0.028,-0.044,-0.025,101.0,101.0,100.0,13.4,1505.2,329.1,-0.8,1.8,2470.719,13.28,0.052,147.5
2021-09-08T07:07:03,42.805,6.029,0.01,-0.035,-0.012,101.0,101.0,100.0,13.4,1505.2,328.0,-0.8,1.8,2470.711,13.28,0.036,164.1
2021-09-08T07:10:03,42.805,6.029,-0.002,-0.038,-0.033,101.0,101.0,100.0,13.3,1505.2,328.1,-0.8,1.8,2470.724,13.28,0.038,183.0
2021-09-08T07:13:03,42.805,6.029,0.007,-0.024,0.012,101.0,101.0,100.0,13.4,1505.2,325.5,-0.7,1.8,2470.717,13.28,0.025,163.7
2021-09-08T07:16:03,42.805,6.029,0.0,-0.02,-0.012,101.0,100.0,101.0,13.4,1505.2,325.3,-0.8,1.8,2470.693,13.28,0.02,180.0
2021-09-08T07:19:03,42.805,6.029,0.018,-0.042,-0.012,102.0,101.0,101.0,13.4,1505.2,330.0,-0.8,1.8,2470.672,13.28,0.045,156.8
2021-09-08T07:22:03,42.805,6.029,0.02,-0.042,-0.015,100.0,101.0,101.0,13.4,1505.2,328.0,-0.7,1.8,2470.731,13.28,0.046,154.5
2021-09-08T07:25:03,42.805,6.029,0.004,-0.021,-0.004,100.0,101.0,101.0,13.4,1505.2,329.1,-0.7,1.8,2470.653,13.28,0.021,169.2
2021-09-08T07:28:03,42.805,6.029,-0.006,-0.043,-0.035,101.0,101.0,100.0,13.3,1505.2,329.4,-0.7,1.8,2470.707,13.28,0.043,187.9
2021-09-08T07:31:03,42.805,6.029,-0.009,-0.024,-0.002,102.0,100.0,101.0,13.4,1505.2,328.7,-0.7,1.8,2470.669,13.28,0.025,200.6
2021-09-08T07:34:03,42.805,6.029,0.015,-0.033,-0.003,101.0,101.0,101.0,13.3,1505.2,325.5,-0.8,1.8,2470.702,13.28,0.036,155.6
2021-09-08T07:37:03,42.805,6.029,0.011,-0.032,-0.006,101.0,100.0,101.0,13.4,1505.2,327.6,-0.7,1.8,2470.658,13.28,0.033,161.0
2021-09-08T07:40:03,42.805,6.029,-0.01,-0.008,-0.006,100.0,101.0,101.0,13.4,1505.2,330.1,-0.7,1.8,2470.706,13.28,0.012,231.3
2021-09-08T07:43:03,42.805,6.029,0.005,-0.013,-0.029,101.0,101.0,100.0,13.4,1505.2,327.0,-0.8,1.8,2470.686,13.28,0.013,159.0
2021-09-08T07:46:03,42.805,6.029,0.011,-0.018,0.005,102.0,101.0,101.0,13.4,1505.2,329.4,-0.8,1.8,2470.691,13.28,0.021,148.6
2021-09-08T07:49:03,42.805,6.029,0.008,-0.025,-0.032,101.0,103.0,100.0,13.4,1505.2,327.1,-0.7,1.8,2470.723,13.28,0.026,162.3
2021-09-08T07:52:03,42.805,6.029,0.01,0.0,0.021,100.0,102.0,101.0,13.4,1505.2,325.0,-0.8,1.8,2470.68,13.28,0.01,90.0
2021-09-08T07:55:03,42.805,6.029,0.014,-0.04,-0.018,102.0,102.0,100.0,13.3,1505.2,328.4,-0.8,1.8,2470.721,13.28,0.042,160.7
2021-09-08T07:58:03,42.805,6.029,0.014,-0.035,-0.025,101.0,101.0,101.0,13.4,1505.2,326.3,-0.8,1.8,2470.701,13.28,0.037,158.2
2021-09-08T08:04:03,42.805,6.029,0.006,-0.033,-0.041,101.0,102.0,100.0,13.4,1505.2,325.5,-0.8,1.8,2470.741,13.28,0.033,169.7
2021-09-08T08:07:03,42.805,6.029,0.012,-0.03,0.003,102.0,103.0,101.0,13.4,1505.2,325.0,-0.8,1.8,2470.775,13.28,0.032,158.2
2021-09-08T08:10:03,42.805,6.029,-0.007,-0.021,-0.004,101.0,101.0,99.0,13.4,1505.2,326.1,-0.8,1.8,2470.724,13.28,0.022,198.4
2021-09-08T08:13:03,42.805,6.029,0.021,-0.018,0.002,102.0,102.0,100.0,13.4,1505.2,328.6,-0.7,1.9,2470.729,13.28,0.027,130.6
2021-09-08T08:16:03,42.805,6.029,0.001,-0.041,-0.034,101.0,102.0,100.0,13.3,1505.2,329.0,-0.8,1.8,2470.751,13.28,0.041,178.6
2021-09-08T08:19:03,42.805,6.029,0.006,-0.022,-0.023,102.0,100.0,102.0,13.4,1505.2,329.5,-0.8,1.8,2470.676,13.28,0.022,164.7
2021-09-08T08:22:03,42.805,6.029,0.018,-0.028,-0.017,101.0,101.0,101.0,13.3,1505.2,329.6,-0.8,1.9,2470.717,13.28,0.033,147.3
2021-09-08T08:25:03,42.805,6.029,0.005,-0.031,-0.009,102.0,101.0,102.0,13.4,1505.2,329.8,-0.8,1.9,2470.68,13.28,0.031,170.8
2021-09-08T08:28:03,42.805,6.029,0.011,-0.021,-0.013,102.0,101.0,100.0,13.4,1505.2,325.2,-0.7,1.8,2470.705,13.28,0.023,152.4
2021-09-08T08:31:03,42.805,6.029,-0.014,-0.049,-0.054,102.0,100.0,100.0,13.4,1505.2,328.4,-0.7,1.8,2470.692,13.28,0.05,195.9
2021-09-08T08:34:03,42.805,6.029,0.014,-0.04,-0.027,102.0,101.0,100.0,13.4,1505.2,325.9,-0.7,1.8,2470.712,13.28,0.042,160.7
2021-09-08T08:37:03,42.805,6.029,0.011,-0.052,-0.019,100.0,101.0,101.0,13.3,1505.2,327.1,-0.8,1.8,2470.67,13.28,0.053,168.1
2021-09-08T08:40:03,42.805,6.029,-0.002,-0.038,-0.003,101.0,101.0,101.0,13.4,1505.2,327.8,-0.7,1.8,2470.693,13.28,0.038,183.0
2021-09-08T08:43:03,42.805,6.029,0.008,-0.033,-0.017,101.0,101.0,100.0,13.3,1505.2,326.1,-0.8,1.8,2470.695,13.28,0.033,166.4
2021-09-08T08:46:03,42.805,6.029,-0.002,-0.02,0.007,103.0,101.0,99.0,13.4,1505.2,328.0,-0.7,1.8,2470.702,13.28,0.02,185.7
2021-09-08T08:49:03,42.805,6.029,0.029,-0.026,-0.011,101.0,102.0,100.0,13.4,1505.2,330.3,-0.8,1.9,2470.715,13.28,0.038,131.9
2021-09-08T08:52:03,42.805,6.029,0.013,-0.035,-0.018,101.0,101.0,100.0,13.3,1505.2,328.1,-0.7,1.8,2470.687,13.28,0.037,159.6
2021-09-08T08:55:03,42.805,6.029,0.003,-0.043,-0.022,101.0,101.0,100.0,13.3,1505.2,326.9,-0.8,1.8,2470.684,13.28,0.043,176.0
2021-09-08T08:58:03,42.805,6.029,0.013,-0.062,-0.025,101.0,101.0,100.0,13.4,1505.2,327.5,-0.7,1.8,2470.678,13.28,0.063,168.2
2021-09-08T09:04:03,42.805,6.029,0.031,-0.034,-0.006,103.0,102.0,100.0,13.4,1505.2,328.7,-0.8,1.8,2470.716,13.28,0.046,137.6
2021-09-08T09:07:03,42.805,6.029,-0.014,0.005,-0.004,99.0,102.0,101.0,13.3,1505.2,328.9,-0.8,1.8,2470.732,13.28,0.014,289.6
2021-09-08T09:10:03,42.805,6.029,0.018,-0.024,0.012,103.0,101.0,100.0,13.4,1505.2,329.3,-0.8,1.8,2470.727,13.28,0.03,143.1
2021-09-08T09:13:03,42.805,6.029,-0.003,-0.047,-0.041,102.0,101.0,101.0,13.3,1505.2,328.0,-0.8,1.8,2470.728,13.28,0.047,183.6
2021-09-08T09:16:03,42.805,6.029,0.003,-0.043,-0.012,102.0,101.0,101.0,13.4,1505.2,327.8,-0.8,1.8,2470.701,13.28,0.043,176.0
2021-09-08T09:19:03,42.805,6.029,0.007,-0.042,-0.002,102.0,102.0,100.0,13.4,1505.2,325.0,-0.8,1.8,2470.701,13.28,0.042,170.5
2021-09-08T09:22:03,42.805,6.029,0.008,-0.033,-0.008,100.0,101.0,102.0,13.3,1505.2,327.7,-0.8,1.8,2470.685,13.28,0.033,166.4
2021-09-08T09:25:03,42.805,6.029,0.024,-0.038,-0.033,102.0,101.0,100.0,13.3,1505.2,328.3,-0.7,1.8,2470.666,13.28,0.044,147.7
2021-09-08T09:28:03,42.805,6.029,0.002,-0.028,-0.029,101.0,101.0,101.0,13.3,1505.2,328.9,-0.8,1.8,2470.664,13.28,0.028,175.9
2021-09-08T09:31:03,42.805,6.029,-0.004,-0.041,-0.028,101.0,102.0,100.0,13.4,1505.2,329.6,-0.7,1.8,2470.68,13.28,0.041,185.6
2021-09-08T09:34:03,42.805,6.029,0.005,-0.032,-0.036,101.0,102.0,100.0,13.4,1505.2,327.4,-0.8,1.8,2470.691,13.28,0.032,171.1
2021-09-08T09:37:03,42.805,6.029,0.017,-0.053,-0.048,101.0,101.0,100.0,13.3,1505.2,325.9,-0.8,1.9,2470.65,13.28,0.055,162.2
2021-09-08T09:40:03,42.805,6.029,-0.002,-0.017,-0.011,101.0,102.0,101.0,13.4,1505.2,329.3,-0.8,1.8,2470.684,13.28,0.017,186.7
2021-09-08T09:43:03,42.805,6.029,0.01,-0.058,-0.03,102.0,101.0,102.0,13.4,1505.2,329.3,-0.8,1.8,2470.643,13.28,0.058,170.2
2021-09-08T09:46:03,42.805,6.029,0.014,-0.019,-0.007,101.0,102.0,101.0,13.4,1505.2,328.2,-0.8,1.9,2470.644,13.28,0.023,143.6
2021-09-08T09:49:03,42.805,6.029,-0.011,-0.012,-0.029,101.0,101.0,101.0,13.4,1505.2,325.7,-0.8,1.8,2470.651,13.28,0.016,222.5
2021-09-08T09:52:03,42.805,6.029,-0.003,-0.031,-0.012,102.0,101.0,101.0,13.4,1505.2,325.4,-0.7,1.8,2470.669,13.28,0.031,185.5
2021-09-08T09:55:03,42.805,6.029,-0.004,-0.029,-0.015,102.0,101.0,101.0,13.4,1505.2,326.9,-0.8,1.9,2470.631,13.28,0.029,187.8